RH
44 45 45 44 38 29 16 14 19 20 21 17 9 8 6 4 4 4 5 5 4 4 3 2 2 2 2 6 6 19 56 46 50 56 61 75 86 93 73 91 100 100 83 73 68
45 47 46 46 44 38 27 14 18 20 22 18 9 8 6 4 4 5 5 5 4 4 2 3 3 3 6 10 18 27 55 52 57 70 83 90 80 70 73 82 87 67 69 75 86
47 49 49 48 47 46 34 16 19 20 22 19 9 8 7 5 5 5 5 5 4 3 2 2 3 3 10 26 16 38 62 58 67 76 66 77 76 93 94 82 77 69 66 59 57
50 51 51 49 49 48 38 19 19 20 22 19 12 8 7 5 5 6 6 6 5 3 2 3 3 4 18 25 19 49 62 56 56 57 87 78 83 100 100 94 86 84 96 99 77
53 54 54 53 52 51 45 28 20 20 22 20 14 8 7 6 6 6 6 6 5 3 3 3 3 4 8 17 43 63 51 45 57 85 87 78 100 94 85 88 89 95 98 99 62
56 57 57 56 55 54 50 39 22 20 23 20 13 9 7 6 6 6 6 6 4 3 3 4 3 5 9 16 29 35 38 72 63 80 89 86 100 83 78 81 91 98 98 91 59
59 61 60 60 59 56 53 47 30 22 25 20 13 9 7 6 7 6 6 5 4 3 3 4 4 6 9 18 26 32 47 68 70 66 95 77 97 88 94 92 97 97 98 96 81
61 65 64 63 62 60 55 51 40 24 23 20 17 10 7 7 7 7 6 5 4 3 3 4 5 7 11 40 56 60 61 56 65 83 92 90 97 96 98 94 97 96 95 98 97
60 68 68 66 66 63 58 54 45 27 24 21 20 12 8 8 7 7 6 5 4 3 3 4 5 15 29 42 43 53 49 53 61 74 98 99 98 97 98 93 96 96 98 93 87
60 70 73 70 69 66 61 58 51 35 25 23 19 14 10 8 8 7 6 4 3 3 4 6 22 34 32 48 58 65 63 66 58 71 88 100 100 90 95 94 95 96 96 97 98
62 72 78 74 73 70 67 64 54 41 32 26 21 17 12 9 8 7 6 4 4 4 7 13 24 22 28 36 47 69 66 61 59 74 77 94 100 93 95 95 90 97 96 97 98
72 71 78 79 79 78 74 73 67 50 35 27 20 16 12 9 8 8 6 5 4 4 16 24 21 13 25 52 60 70 65 58 67 78 98 95 94 98 89 91 96 96 96 97 99
96 83 78 78 81 82 84 84 80 69 38 25 20 14 11 9 8 8 6 5 4 4 6 9 9 12 30 50 34 73 79 74 78 82 93 88 98 96 71 72 90 97 98 97 98
99 98 92 90 86 89 93 98 98 92 32 23 16 12 10 8 8 8 6 5 4 4 6 7 6 10 10 22 30 73 67 67 83 90 80 82 79 90 61 66 77 95 96 96 99
100 99 97 99 100 97 100 100 99 70 71 24 14 11 10 9 9 8 6 5 4 4 7 9 5 8 10 24 34 50 55 61 91 99 90 73 91 93 62 74 81 89 96 96 98
100 100 100 100 100 100 100 100 98 85 57 21 13 11 10 9 8 7 6 5 6 5 5 6 8 12 15 13 33 38 66 68 87 82 93 76 79 76 89 92 88 94 96 96 97
99 100 100 100 100 100 100 100 99 89 35 19 14 11 10 9 9 7 6 5 5 10 8 35 16 9 9 6 28 28 47 75 82 72 70 69 64 81 96 79 96 96 93 96 97
99 100 100 100 100 100 99 99 100 88 35 17 15 12 10 9 9 7 7 6 6 6 9 21 28 9 19 22 35 73 94 90 79 65 52 60 77 97 91 62 86 95 96 97 97
100 100 100 100 100 100 100 99 99 90 77 21 12 12 10 9 10 8 7 7 7 6 7 11 31 8 16 21 25 42 86 84 100 89 69 52 75 80 63 54 73 82 84 94 99
99 99 99 99 100 100 100 99 99 99 87 79 14 13 10 9 10 8 7 8 7 7 7 9 47 10 14 28 44 45 58 94 94 83 67 45 64 78 56 52 58 79 77 80 96
100 99 98 99 100 99 99 99 99 99 98 96 33 11 10 9 10 7 7 8 8 8 7 8 10 22 35 20 28 43 75 91 94 93 80 63 82 71 60 56 56 79 82 80 83
99 99 98 100 99 99 99 99 99 99 99 84 46 11 10 9 10 7 7 7 8 8 8 8 10 58 18 16 21 33 56 74 87 78 80 78 65 77 54 55 56 70 85 84 81
99 99 100 99 98 99 99 99 99 99 98 94 61 18 10 9 10 8 8 8 8 9 8 9 15 60 64 52 39 40 60 65 81 89 90 71 73 74 56 50 50 61 84 84 85
99 99 99 99 98 99 99 99 99 99 98 97 51 10 10 9 10 8 8 8 9 10 8 8 9 9 33 33 12 26 42 59 74 84 81 71 73 51 49 48 45 50 75 85 82
99 98 98 98 99 99 99 99 99 99 98 98 68 25 10 9 10 9 9 9 9 10 9 8 8 10 9 10 13 23 30 52 67 80 75 74 61 53 51 50 49 49 62 82 77
99 99 99 98 99 99 99 98 99 99 98 97 79 27 10 17 12 9 10 10 9 10 10 9 12 9 10 10 15 20 23 34 44 56 62 75 71 54 52 54 51 52 55 78 81
99 99 99 99 99 99 99 99 99 99 99 96 66 49 16 50 14 11 11 12 10 10 10 10 10 11 60 14 18 39 12 16 21 44 52 54 66 54 47 50 49 51 54 71 79
Wind_Speed
11 12 13 14 15 15 14 14 16 17 17 15 8 6 9 13 10 14 20 24 29 31 32 35 35 34 34 32 30 24 8 11 14 15 18 17 22 20 26 25 21 22 29 35 36
11 12 13 14 15 16 16 14 15 17 17 15 8 9 9 13 10 18 23 26 28 31 31 31 31 30 26 27 26 15 6 11 11 12 16 19 23 29 29 27 28 33 31 28 33
11 12 13 14 14 16 16 15 14 16 17 14 9 9 9 13 8 19 23 25 28 31 32 34 32 28 24 22 20 10 6 9 9 13 18 21 24 24 28 32 36 41 31 22 21
12 12 13 13 14 15 16 15 14 15 16 13 10 9 8 12 13 19 23 26 30 32 33 30 28 24 21 17 16 10 7 9 12 16 19 19 24 19 17 32 37 35 31 20 14
14 12 13 13 14 14 15 15 15 15 16 15 11 9 8 11 14 18 22 26 30 31 29 27 27 25 20 15 13 9 11 11 14 15 24 19 16 22 24 34 29 24 20 17 19
16 14 12 13 14 14 15 15 14 14 15 13 10 9 10 12 15 17 21 26 29 29 28 25 27 26 20 12 11 10 12 11 12 16 16 19 20 23 36 34 29 19 13 16 17
16 15 14 14 14 14 15 16 15 15 16 13 8 11 11 11 15 17 22 26 27 27 25 23 24 23 19 12 9 12 10 12 9 15 8 11 10 29 33 31 24 16 12 15 20
16 15 15 15 15 14 16 16 17 16 16 12 10 11 10 11 16 18 22 25 27 25 23 22 24 22 20 15 9 11 10 13 15 14 11 8 13 31 36 32 21 15 14 16 20
16 16 15 16 15 15 15 16 17 16 16 12 13 11 9 12 14 15 19 21 23 23 22 21 22 25 18 15 5 7 16 14 13 20 14 16 17 32 34 30 23 15 15 15 17
17 16 15 16 16 16 15 16 19 21 12 15 12 9 10 13 15 16 20 22 22 23 21 20 19 14 19 18 9 18 20 16 16 14 14 12 13 32 35 35 31 26 18 11 6
17 16 15 16 16 16 16 16 18 19 20 18 16 15 12 12 13 14 19 19 19 20 14 17 21 26 21 15 17 19 16 17 18 15 14 13 14 20 39 40 37 30 26 18 20
19 18 16 17 17 18 18 16 18 17 22 24 18 14 12 12 11 14 17 17 15 14 13 14 18 23 19 15 18 13 12 15 12 14 12 13 20 16 34 42 40 35 24 23 14
19 18 19 19 18 19 18 15 17 21 25 23 17 13 11 11 10 11 15 15 13 15 10 14 19 21 17 13 23 13 10 19 16 16 13 19 5 9 33 39 38 33 27 20 19
24 19 18 19 19 20 17 20 18 17 16 13 10 8 8 8 6 12 15 13 11 12 9 7 21 16 19 14 21 12 20 17 10 10 7 14 6 13 38 42 40 37 29 26 19
29 32 30 23 23 20 20 21 20 9 5 6 10 6 6 5 7 10 13 13 11 9 9 7 16 13 23 22 19 17 24 8 6 8 9 14 8 12 41 50 48 41 32 28 23
28 28 27 27 25 22 23 23 22 3 7 5 6 5 6 6 6 8 12 14 10 5 8 4 13 17 24 21 15 25 15 7 7 7 4 12 7 15 38 47 45 41 33 28 24
30 25 28 25 22 25 25 18 11 6 5 5 7 7 8 6 6 6 7 10 12 6 9 8 8 17 19 22 10 24 19 2 3 2 4 11 6 8 25 39 40 41 35 27 23
27 29 28 34 33 26 18 17 9 8 13 10 8 9 8 6 6 6 8 10 14 13 4 6 2 17 19 23 19 15 12 5 5 6 9 5 6 7 21 34 34 35 32 22 17
27 28 23 26 27 30 29 14 8 10 13 11 7 10 8 7 5 5 7 7 11 12 7 7 1 13 14 17 22 13 10 8 5 8 6 4 5 12 27 32 34 35 32 24 17
25 28 30 27 20 22 19 23 22 19 15 10 10 8 7 6 4 4 5 4 8 9 10 5 1 9 11 15 15 16 15 5 4 6 6 3 1 12 37 38 37 36 37 29 18
27 23 28 20 18 17 23 26 23 24 22 11 13 12 10 7 5 4 3 2 7 7 7 6 7 8 9 8 14 14 11 7 6 2 4 6 3 16 32 35 37 34 34 33 23
24 27 26 28 23 20 23 24 26 25 21 13 12 13 11 7 6 4 3 3 5 6 5 7 3 2 5 6 10 10 11 9 5 5 4 5 6 18 30 30 32 29 30 30 24
27 28 25 27 22 24 23 24 21 20 21 13 11 13 11 9 5 6 4 4 4 4 5 5 5 3 5 4 10 8 10 10 8 7 5 4 5 19 25 24 25 26 26 27 25
31 26 24 26 28 27 25 24 23 21 23 20 11 12 10 10 8 4 5 3 4 3 3 4 3 2 3 9 12 13 13 10 5 5 10 12 19 22 24 24 22 23 24 27 27
33 29 32 21 20 19 21 21 18 20 17 20 14 13 11 9 9 9 7 5 4 3 4 5 3 6 9 11 10 12 12 11 9 8 7 12 18 18 25 26 25 25 24 23 24
39 26 28 28 25 26 25 26 20 18 18 22 18 11 13 9 12 6 7 6 6 5 5 4 4 10 10 7 10 13 11 11 12 12 14 14 14 16 21 23 22 22 21 21 22
34 27 31 29 28 26 27 25 21 15 19 18 15 15 14 12 13 10 8 8 8 7 6 5 5 8 3 8 14 10 5 8 12 12 16 14 13 16 16 21 20 20 19 20 21
Wind_Direction
324 332 339 342 344 344 345 344 345 349 350 342 334 340 349 352 348 350 350 352 352 348 346 351 351 349 353 357 4 12 355 334 329 328 320 324 318 310 312 291 302 290 298 284 289
312 324 333 336 340 341 342 346 342 346 349 339 325 337 345 352 347 352 353 352 349 347 350 352 352 355 354 359 3 18 358 333 327 321 319 322 316 319 320 307 301 305 306 286 284
302 314 324 332 336 335 338 342 340 343 345 336 326 332 336 351 349 352 352 347 348 348 349 349 353 358 360 1 8 345 332 330 326 314 315 320 318 323 323 312 314 311 314 306 292
293 305 316 325 331 330 333 338 339 338 343 336 312 335 332 351 6 347 347 347 349 347 351 351 356 1 5 359 0 21 329 323 327 325 323 313 322 330 327 301 313 304 304 298 289
288 297 308 317 323 323 329 336 339 333 343 333 314 327 324 343 347 344 344 349 348 347 349 353 356 2 359 353 360 354 330 326 324 332 317 329 329 328 316 317 316 314 308 284 269
286 292 299 306 315 319 326 331 333 329 337 328 316 305 316 331 343 341 348 350 348 348 350 354 357 1 5 351 10 317 350 316 327 327 314 325 296 326 331 333 323 323 290 280 274
281 287 293 299 310 317 321 327 331 330 333 322 319 299 306 323 334 344 351 350 348 348 350 355 1 8 0 346 345 352 348 326 304 330 304 350 347 334 346 344 338 325 291 279 274
278 282 288 294 303 313 317 327 331 331 328 315 321 300 295 320 333 345 346 349 349 346 351 355 7 11 10 1 336 359 337 337 308 339 300 348 345 356 356 351 347 333 312 290 287
270 276 282 288 296 307 316 324 327 327 325 317 316 298 283 314 325 339 344 349 348 348 352 2 1 14 8 7 330 326 332 325 329 313 336 359 347 351 354 1 7 352 332 312 298
274 273 277 283 291 300 310 323 328 325 323 317 311 294 280 309 324 334 348 352 353 352 353 1 12 9 9 15 356 318 321 317 327 315 313 324 336 0 2 10 15 12 10 352 64
269 273 278 279 286 294 303 320 322 324 320 315 290 275 272 300 312 334 350 352 354 360 355 359 8 12 2 355 343 318 305 313 321 308 332 339 317 330 358 10 14 16 11 33 66
263 264 265 273 282 286 291 314 319 319 318 308 292 269 264 298 307 337 346 353 358 360 9 4 1 6 360 339 346 327 318 318 320 317 319 328 312 305 3 10 10 14 16 23 94
248 258 263 266 270 277 288 297 317 323 317 297 277 253 256 292 297 327 349 354 0 8 3 21 3 5 3 344 345 348 330 321 299 311 295 329 268 309 3 14 14 19 22 30 53
244 249 260 268 268 273 280 280 283 310 305 283 253 236 258 293 280 328 352 3 4 10 7 0 3 4 5 356 351 343 309 315 307 321 336 354 304 349 354 13 18 17 21 28 49
258 251 248 253 264 273 281 288 285 315 305 269 226 247 270 295 310 333 355 359 7 17 19 338 3 9 9 358 357 324 331 302 288 306 307 341 311 344 354 10 10 12 14 23 40
264 251 256 257 263 271 281 285 299 300 251 247 231 247 273 290 307 332 3 7 7 357 13 348 9 13 7 3 344 349 342 286 281 284 241 360 333 17 2 358 1 10 11 14 33
269 258 257 259 268 269 278 277 290 200 277 254 239 254 273 281 283 330 349 4 26 1 2 351 3 5 3 15 3 1 17 310 229 276 336 353 356 330 356 2 2 6 7 9 23
264 268 276 265 266 265 274 288 245 236 255 276 264 270 261 268 279 329 349 16 25 21 40 21 343 4 360 18 355 1 13 13 309 347 328 335 356 345 354 360 4 10 10 7 18
263 270 260 272 270 270 271 269 272 249 244 276 278 269 254 244 281 311 349 17 22 25 28 9 287 356 1 8 19 355 7 346 301 260 264 1 349 337 341 359 4 11 14 14 18
253 263 262 262 271 268 244 256 274 246 233 238 268 256 241 251 267 303 349 349 13 15 21 12 352 346 355 15 358 18 10 346 342 330 319 357 305 322 348 352 359 6 10 15 13
260 262 263 259 267 263 248 263 279 268 232 224 252 247 246 259 256 278 313 320 3 7 10 12 17 343 6 4 1 6 9 4 322 342 323 317 61 339 341 347 351 358 6 7 9
250 254 269 260 264 253 251 266 277 279 234 210 244 253 252 245 268 243 287 320 349 360 9 7 360 0 324 336 348 354 5 5 336 358 291 275 305 328 335 344 342 354 1 7 4
251 255 265 255 254 254 274 268 276 271 222 211 215 245 240 236 248 230 265 295 339 346 5 0 3 317 308 341 344 347 329 342 337 328 264 322 353 339 322 335 342 348 358 2 5
248 252 251 250 258 257 272 267 274 267 235 216 205 239 238 237 243 250 262 268 313 318 330 344 348 355 322 280 296 304 311 316 316 288 312 279 295 326 331 336 343 346 355 358 358
235 242 245 256 250 259 269 258 276 264 237 209 203 228 238 237 242 251 256 278 290 275 292 325 296 312 303 296 299 301 297 303 284 285 277 300 312 328 335 338 343 345 347 354 352
238 254 241 254 254 265 265 263 275 257 232 209 196 211 223 228 249 267 260 267 271 266 266 292 296 318 310 289 303 296 281 286 289 288 289 300 322 327 331 331 336 338 340 349 350
236 246 248 255 257 259 261 267 272 258 225 205 198 211 216 230 248 253 260 271 269 259 256 276 312 323 268 310 312 291 263 291 295 290 291 287 278 315 327 330 335 338 342 342 351